Regional Weather Roundup
Issued by NWS

Home | Current Version | Previous Version | Text Only | Print | Product List | Glossary Off
Versions: 1 2 3 4 5 6 7 8 9 10 11 12 13 14 15 16 17 18 19 20 21 22 23 24 25 26 27 28 29 30 31 32 33 34 35 36 37 38 39 40 41 42 43 44 45 46 47 48 49 50

000
ASUS43 KLOT 210903
RWRIL

ILLINOIS REGIONAL WEATHER ROUNDUP
NATIONAL WEATHER SERVICE CHICAGO/ROMEOVILLE IL
400 AM CDT MON AUG 21 2017

NOTE: "FAIR" INDICATES FEW OR NO CLOUDS BELOW 12,000 FEET WITH NO
SIGNIFICANT WEATHER AND/OR OBSTRUCTIONS TO VISIBILITY.

* THESE STATIONS ARE NOT UNDER NWS QUALITY CONTROL. THEY ALSO MAY NOT
  REPORT WEATHER SUCH AS PRECIPITATION OR FOG.

ILZ001-002-007-009-015-016-024-211000-
NORTHWEST ILLINOIS

CITY           SKY/WX    TMP DP  RH WIND       PRES   REMARKS
MOLINE         CLOUDY    67  64  90 CALM      30.02R
STERLING*      CLOUDY    67  66  97 CALM      30.03S FOG
SAVANNA*         N/A     64  64  99 N3        30.02S FOG
$$

ILZ003-004-008-010-011-017-018-211000-
NORTH CENTRAL ILLINOIS

CITY           SKY/WX    TMP DP  RH WIND       PRES   REMARKS
ROCKFORD       CLOUDY    67  65  93 SW3       30.04S
FREEPORT*      FOG       64  64 100 CALM      30.05R VSB 3/4
ROCHELLE*      CLOUDY    69  69  98 S5        30.04S
$$

ILZ005-006-012>014-019>023-211000-
NORTHEAST ILLINOIS

CITY           SKY/WX    TMP DP  RH WIND       PRES   REMARKS
CHICAGO-OHARE  PTCLDY    73  68  84 S9        30.01F
CHICAGO-MIDWAY PTCLDY    74  68  81 S10       30.02F
AURORA         CLOUDY    70  69  97 S7        30.03S
LANSING*       CLEAR     71  65  82 S7        30.04F
JOLIET*        CLOUDY    72  70  94 SE6       30.03S
WAUKEGAN       FOG       68  68 100 CALM      30.01F VSB 1/2
DUPAGE AIRPORT CLOUDY    70  70 100 S7        30.02S
WHEELING       PTCLDY    73  71  93 S7        30.03S
MORRIS*        CLOUDY    69  67  94 SE6       30.02R
NORTHERLY ISL    N/A     72  67  84 S6          N/A
$$

LMZ740>746-211000-
SOUTHERN LAKE MICHIGAN

STATION/POSITION SKY/WX   TEMP    WIND        PRES    VSBY  WAVE
                          AIR SEA DIR/SP/G                  HT/PER
                          (F)     (DEG/KT/KT) (MB)    (MI)  (FT/S)
SOUTHERN BUOY              74 72  130/  8/ 10 1016.8          0
WILMETTE HARBOR            76 74  200/ 10/ 12   N/A           1/ 2
HARRISON CRIB              75     190/ 10/ 12   N/A
CALUMET HARBOR             73     170/  6/  8 1016.3F
BURNS HARBOR               74     180/  7/ 11 1017.6F
MICHIGAN CITY              73     160/  8/ 10   N/A
MICHIGAN CITY 6N           74 75  180/ 12/ 14   N/A           1
ST. JOSEPH                 75 74  190/  6/  8 1017.0F         1/ 2
$$

ILZ025>027-034>036-040-047-049-050-058-095>099-211000-
WEST-CENTRAL ILLINOIS

CITY           SKY/WX    TMP DP  RH WIND       PRES   REMARKS
QUINCY         CLEAR     69  66  90 S5        30.04S
GALESBURG*     CLOUDY    63  63 100 CALM      30.05S FOG
MACOMB*        CLEAR     63  63  99 CALM      30.06S
$$

ILZ028>032-037-038-041>044-048-051>054-059>061-211000-
CENTRAL ILLINOIS

CITY           SKY/WX    TMP DP  RH WIND       PRES   REMARKS
BLOOMINGTON    CLEAR     71  70  96 SW3       30.07S
DECATUR        CLOUDY    74  72  93 SW6       30.07R
PEORIA         CLEAR     69  69 100 S3        30.04F
LACON*         CLOUDY    67  67 100 CALM      30.03S
LINCOLN*       FOG       69  69 100 CALM      30.05F VSB 1/4
SPRINGFIELD    CLEAR     71  70  96 S6        30.05S
TAYLORVILLE    NOT AVBL
$$

ILZ033-039-045-046-055>057-062-063-211000-
EAST-CENTRAL ILLINOIS

CITY           SKY/WX    TMP DP  RH WIND       PRES   REMARKS
CHAMPAIGN      CLEAR     71  69  93 S6        30.07S
RANTOUL*       PTCLDY    73  72  97 S5        30.07S
MATTOON        PTCLDY    74  73  97 S6        30.07R
PARIS*         MOCLDY    73  71  94 S5        30.09S
$$

ILZ079-100>102-211000-
SOUTHWEST ILLINOIS

CITY           SKY/WX    TMP DP  RH WIND       PRES   REMARKS
ALTON          PTCLDY    73  73  99 SE3       30.06S
BELLEVILLE     CLEAR     72  70  92 CALM      30.08R
CAHOKIA*       CLEAR     75  71  87 S5        30.06R
SPARTA*        CLEAR     74  71  89 S3        30.09R
$$

ILZ064>066-069>071-074>076-080>082-084>086-088>090-092>094-211000-
SOUTH-CENTRAL ILLINOIS

CITY           SKY/WX    TMP DP  RH WIND       PRES   REMARKS
CARBONDALE     PTCLDY    70  69  97 SE3       30.08S
CAIRO*         CLOUDY    69  69  99 CALM      30.09R
EFFINGHAM*     PTCLDY    75  72  88 CALM      30.09R
MARION         PTCLDY    73  72  94 S3        30.09S
MT. VERNON       N/A     71  71 100 CALM      30.09R
CENTRALIA*     PTCLDY    71  71  98 CALM      30.08R
SALEM*         CLEAR     74  70  88 CALM      30.08S
METROPOLIS*    PTCLDY    70  69  98 CALM      30.09S
$$

ILZ067-068-072-073-078-083-087-091-211000-
SOUTHEAST ILLINOIS

CITY           SKY/WX    TMP DP  RH WIND       PRES   REMARKS
LAWRENCEVILLE  PTCLDY    71  69  93 CALM      30.10R
FLORA*         PTCLDY    72  71  96 CALM      30.09R FOG
FAIRFIELD*     PTCLDY    72  72  98 CALM      30.08R
HARRISBURG*    MOCLDY    68  68  99 CALM      30.09S
ROBINSON*      CLEAR     68  68  98 SE3       30.11R
CARMI*         PTCLDY    68  68  99 S5        30.08S
$$

ABBREVIATIONS USED IN REMARKS
   TC - TEMPERATURE IN CELSIUS
  WCI - WIND CHILL INDEX
   HX - HEAT INDEX
  VSB - VISIBILITY
$$





USA.gov is the U.S. government's official web portal to all federal, state and local government web resources and services.